PRIVATE WETTERSTATION BILLIGHEIM-ALLFELD                       ZURCK
Wetterdaten: Samstag, 16.04.2022
Datum Zeit Temp. A. Temp. A. min Temp. A. max Feuchte A. Luftdruck Regen Wind Richtung Richtung Sonnenschein ET Solar Taupunkt Windchill Windben Empfang
16.04.2022 00:00 7,9 C 7,9 C 8,2 C 76 % 1025,4 hPa 0,0 l/m 0,0 km/h (0 Bft) NO 35 0 min 0,000 mm 0 W/m 3,9 C 7,9 C 0,0 km/h (0 Bft) 100 %
16.04.2022 00:10 7,8 C 7,8 C 7,9 C 77 % 1025,4 hPa 0,0 l/m 0,0 km/h (0 Bft) NO 35 0 min 0,000 mm 0 W/m 4,0 C 7,8 C 0,0 km/h (0 Bft) 100 %
16.04.2022 00:20 7,7 C 7,7 C 7,8 C 77 % 1025,6 hPa 0,0 l/m 0,0 km/h (0 Bft) NO 35 0 min 0,000 mm 0 W/m 3,9 C 7,7 C 0,0 km/h (0 Bft) 100 %
16.04.2022 00:30 7,5 C 7,5 C 7,7 C 78 % 1025,6 hPa 0,0 l/m 0,0 km/h (0 Bft) NO 35 0 min 0,000 mm 0 W/m 3,9 C 7,5 C 0,0 km/h (0 Bft) 99 %
16.04.2022 00:40 7,3 C 7,3 C 7,5 C 78 % 1025,7 hPa 0,0 l/m 0,0 km/h (0 Bft) NO 35 0 min 0,000 mm 0 W/m 3,7 C 7,3 C 0,0 km/h (0 Bft) 100 %
16.04.2022 00:50 7,2 C 7,2 C 7,3 C 79 % 1025,7 hPa 0,0 l/m 0,0 km/h (0 Bft) NO 35 0 min 0,000 mm 0 W/m 3,8 C 7,2 C 0,0 km/h (0 Bft) 100 %
16.04.2022 01:00 6,9 C 6,9 C 7,2 C 80 % 1025,8 hPa 0,0 l/m 0,0 km/h (0 Bft) NO 35 0 min 0,025 mm 0 W/m 3,7 C 6,9 C 0,0 km/h (0 Bft) 100 %
16.04.2022 01:10 6,8 C 6,8 C 6,9 C 80 % 1025,9 hPa 0,0 l/m 0,0 km/h (0 Bft) NO 35 0 min 0,000 mm 0 W/m 3,6 C 6,8 C 0,0 km/h (0 Bft) 100 %
16.04.2022 01:20 6,7 C 6,7 C 6,8 C 81 % 1026,0 hPa 0,0 l/m 0,0 km/h (0 Bft) NO 35 0 min 0,000 mm 0 W/m 3,7 C 6,7 C 0,0 km/h (0 Bft) 100 %
16.04.2022 01:30 6,6 C 6,6 C 6,7 C 81 % 1026,1 hPa 0,0 l/m 0,0 km/h (0 Bft) NO 35 0 min 0,000 mm 0 W/m 3,6 C 6,6 C 0,0 km/h (0 Bft) 92 %
16.04.2022 01:40 6,3 C 6,3 C 6,6 C 81 % 1026,1 hPa 0,0 l/m 0,0 km/h (0 Bft) NO 35 0 min 0,000 mm 0 W/m 3,3 C 6,3 C 0,0 km/h (0 Bft) 97 %
16.04.2022 01:50 6,1 C 6,1 C 6,3 C 82 % 1026,1 hPa 0,0 l/m 0,0 km/h (0 Bft) NO 35 0 min 0,000 mm 0 W/m 3,3 C 6,1 C 0,0 km/h (0 Bft) 97 %
16.04.2022 02:00 5,9 C 5,9 C 6,1 C 82 % 1026,0 hPa 0,0 l/m 0,0 km/h (0 Bft) NO 35 0 min 0,000 mm 0 W/m 3,1 C 5,9 C 0,0 km/h (0 Bft) 98 %
16.04.2022 02:10 5,7 C 5,7 C 5,9 C 83 % 1026,0 hPa 0,0 l/m 0,0 km/h (0 Bft) NO 35 0 min 0,000 mm 0 W/m 3,0 C 5,7 C 0,0 km/h (0 Bft) 97 %
16.04.2022 02:20 5,6 C 5,6 C 5,7 C 84 % 1026,1 hPa 0,0 l/m 0,0 km/h (0 Bft) NO 35 0 min 0,000 mm 0 W/m 3,1 C 5,6 C 0,0 km/h (0 Bft) 97 %
16.04.2022 02:30 5,5 C 5,5 C 5,6 C 84 % 1026,0 hPa 0,0 l/m 0,0 km/h (0 Bft) NO 35 0 min 0,000 mm 0 W/m 3,0 C 5,5 C 0,0 km/h (0 Bft) 90 %
16.04.2022 02:40 5,3 C 5,3 C 5,5 C 85 % 1025,8 hPa 0,0 l/m 0,0 km/h (0 Bft) NO 35 0 min 0,000 mm 0 W/m 3,0 C 5,3 C 0,0 km/h (0 Bft) 97 %
16.04.2022 02:50 5,3 C 5,3 C 5,3 C 85 % 1025,8 hPa 0,0 l/m 0,0 km/h (0 Bft) NO 35 0 min 0,000 mm 0 W/m 3,0 C 5,3 C 0,0 km/h (0 Bft) 98 %
16.04.2022 03:00 5,2 C 5,2 C 5,3 C 86 % 1025,9 hPa 0,0 l/m 0,0 km/h (0 Bft) NO 35 0 min 0,000 mm 0 W/m 3,1 C 5,2 C 0,0 km/h (0 Bft) 97 %
16.04.2022 03:10 5,1 C 5,1 C 5,2 C 86 % 1026,0 hPa 0,0 l/m 0,0 km/h (0 Bft) NO 35 0 min 0,000 mm 0 W/m 3,0 C 5,1 C 0,0 km/h (0 Bft) 97 %
16.04.2022 03:20 4,9 C 4,9 C 5,1 C 86 % 1026,2 hPa 0,0 l/m 0,0 km/h (0 Bft) NO 35 0 min 0,000 mm 0 W/m 2,8 C 4,9 C 0,0 km/h (0 Bft) 98 %
16.04.2022 03:30 4,9 C 4,9 C 4,9 C 86 % 1026,2 hPa 0,0 l/m 0,0 km/h (0 Bft) NO 35 0 min 0,000 mm 0 W/m 2,8 C 4,9 C 0,0 km/h (0 Bft) 98 %
16.04.2022 03:40 4,7 C 4,7 C 4,9 C 87 % 1026,1 hPa 0,0 l/m 0,0 km/h (0 Bft) NO 35 0 min 0,000 mm 0 W/m 2,7 C 4,7 C 0,0 km/h (0 Bft) 97 %
16.04.2022 03:50 4,7 C 4,7 C 4,7 C 88 % 1026,1 hPa 0,0 l/m 0,0 km/h (0 Bft) NO 35 0 min 0,000 mm 0 W/m 2,9 C 4,7 C 0,0 km/h (0 Bft) 97 %
16.04.2022 04:00 4,8 C 4,7 C 4,8 C 89 % 1026,2 hPa 0,0 l/m 0,0 km/h (0 Bft) NO 35 0 min 0,000 mm 0 W/m 3,1 C 4,8 C 0,0 km/h (0 Bft) 98 %
16.04.2022 04:10 5,1 C 4,8 C 5,1 C 89 % 1026,2 hPa 0,0 l/m 0,0 km/h (0 Bft) NO 35 0 min 0,000 mm 0 W/m 3,4 C 5,1 C 0,0 km/h (0 Bft) 97 %
16.04.2022 04:20 5,2 C 5,1 C 5,2 C 88 % 1026,3 hPa 0,0 l/m 0,0 km/h (0 Bft) NO 35 0 min 0,000 mm 0 W/m 3,4 C 5,2 C 0,0 km/h (0 Bft) 98 %
16.04.2022 04:30 5,1 C 5,1 C 5,2 C 88 % 1026,2 hPa 0,0 l/m 0,0 km/h (0 Bft) NO 35 0 min 0,000 mm 0 W/m 3,3 C 5,1 C 0,0 km/h (0 Bft) 97 %
16.04.2022 04:40 5,1 C 5,1 C 5,1 C 88 % 1026,1 hPa 0,0 l/m 0,0 km/h (0 Bft) NO 35 0 min 0,000 mm 0 W/m 3,3 C 5,1 C 0,0 km/h (0 Bft) 97 %
16.04.2022 04:50 5,2 C 5,1 C 5,2 C 89 % 1026,2 hPa 0,0 l/m 0,0 km/h (0 Bft) NO 35 0 min 0,000 mm 0 W/m 3,5 C 5,2 C 0,0 km/h (0 Bft) 98 %
16.04.2022 05:00 5,2 C 5,2 C 5,2 C 89 % 1026,1 hPa 0,0 l/m 0,0 km/h (0 Bft) NO 35 0 min 0,000 mm 0 W/m 3,5 C 5,2 C 0,0 km/h (0 Bft) 97 %
16.04.2022 05:10 5,1 C 5,1 C 5,2 C 89 % 1026,3 hPa 0,0 l/m 0,0 km/h (0 Bft) NO 35 0 min 0,000 mm 0 W/m 3,4 C 5,1 C 0,0 km/h (0 Bft) 89 %
16.04.2022 05:20 5,2 C 5,1 C 5,2 C 89 % 1026,2 hPa 0,0 l/m 0,0 km/h (0 Bft) NO 35 0 min 0,000 mm 0 W/m 3,5 C 5,2 C 0,0 km/h (0 Bft) 97 %
16.04.2022 05:30 5,2 C 5,2 C 5,2 C 89 % 1026,4 hPa 0,0 l/m 0,0 km/h (0 Bft) NO 35 0 min 0,000 mm 0 W/m 3,5 C 5,2 C 0,0 km/h (0 Bft) 97 %
16.04.2022 05:40 5,3 C 5,2 C 5,3 C 89 % 1026,3 hPa 0,0 l/m 0,0 km/h (0 Bft) NO 35 0 min 0,000 mm 0 W/m 3,6 C 5,3 C 0,0 km/h (0 Bft) 99 %
16.04.2022 05:50 5,4 C 5,3 C 5,4 C 89 % 1026,4 hPa 0,0 l/m 0,0 km/h (0 Bft) NO 35 0 min 0,000 mm 0 W/m 3,7 C 5,4 C 0,0 km/h (0 Bft) 100 %
16.04.2022 06:00 5,5 C 5,4 C 5,5 C 90 % 1026,4 hPa 0,0 l/m 0,0 km/h (0 Bft) NO 35 0 min 0,000 mm 0 W/m 4,0 C 5,5 C 0,0 km/h (0 Bft) 99 %
16.04.2022 06:10 5,7 C 5,5 C 5,7 C 90 % 1026,4 hPa 0,0 l/m 0,0 km/h (0 Bft) NO 35 0 min 0,000 mm 0 W/m 4,2 C 5,7 C 0,0 km/h (0 Bft) 100 %
16.04.2022 06:20 5,8 C 5,7 C 5,8 C 90 % 1026,5 hPa 0,0 l/m 0,0 km/h (0 Bft) NO 35 0 min 0,000 mm 0 W/m 4,3 C 5,8 C 0,0 km/h (0 Bft) 100 %
16.04.2022 06:30 5,8 C 5,7 C 5,8 C 90 % 1026,4 hPa 0,0 l/m 0,0 km/h (0 Bft) NO 35 0 min 0,000 mm 0 W/m 4,3 C 5,8 C 0,0 km/h (0 Bft) 100 %
16.04.2022 06:40 5,9 C 5,8 C 5,9 C 90 % 1026,5 hPa 0,0 l/m 0,0 km/h (0 Bft) NO 35 0 min 0,000 mm 0 W/m 4,4 C 5,9 C 0,0 km/h (0 Bft) 100 %
16.04.2022 06:50 6,1 C 5,9 C 6,1 C 90 % 1026,6 hPa 0,0 l/m 0,0 km/h (0 Bft) NO 35 0 min 0,000 mm 5 W/m 4,6 C 6,1 C 0,0 km/h (0 Bft) 100 %
16.04.2022 07:00 6,3 C 6,1 C 6,3 C 90 % 1026,8 hPa 0,0 l/m 0,0 km/h (0 Bft) NO 35 0 min 0,000 mm 9 W/m 4,8 C 6,3 C 0,0 km/h (0 Bft) 100 %
16.04.2022 07:10 6,4 C 6,3 C 6,4 C 90 % 1026,8 hPa 0,0 l/m 0,0 km/h (0 Bft) N-NO 27 0 min 0,000 mm 11 W/m 4,9 C 6,4 C 0,0 km/h (0 Bft) 100 %
16.04.2022 07:20 6,5 C 6,4 C 6,5 C 90 % 1026,9 hPa 0,0 l/m 0,0 km/h (0 Bft) N-NO 27 0 min 0,000 mm 11 W/m 5,0 C 6,5 C 0,0 km/h (0 Bft) 100 %
16.04.2022 07:30 6,6 C 6,5 C 6,6 C 90 % 1026,9 hPa 0,0 l/m 0,0 km/h (0 Bft) N-NO 27 0 min 0,000 mm 16 W/m 5,1 C 6,6 C 0,0 km/h (0 Bft) 100 %
16.04.2022 07:40 6,8 C 6,6 C 6,8 C 90 % 1027,0 hPa 0,0 l/m 0,0 km/h (0 Bft) N-NO 27 0 min 0,000 mm 21 W/m 5,3 C 6,8 C 0,0 km/h (0 Bft) 100 %
16.04.2022 07:50 7,0 C 6,8 C 7,0 C 90 % 1027,2 hPa 0,0 l/m 0,0 km/h (0 Bft) N-NO 27 0 min 0,000 mm 21 W/m 5,5 C 7,0 C 0,0 km/h (0 Bft) 100 %
16.04.2022 08:00 7,3 C 7,0 C 7,3 C 89 % 1027,2 hPa 0,0 l/m 0,4 km/h (0 Bft) N-NO 29 0 min 0,000 mm 21 W/m 5,6 C 7,3 C 3,2 km/h (1 Bft) 100 %
16.04.2022 08:10 7,6 C 7,3 C 7,6 C 88 % 1027,3 hPa 0,0 l/m 0,5 km/h (0 Bft) N-NO 28 0 min 0,000 mm 26 W/m 5,7 C 7,6 C 4,8 km/h (1 Bft) 94 %
16.04.2022 08:20 7,7 C 7,6 C 7,7 C 86 % 1027,4 hPa 0,0 l/m 2,4 km/h (1 Bft) N-NO 30 0 min 0,000 mm 40 W/m 5,5 C 7,7 C 8,0 km/h (2 Bft) 97 %
16.04.2022 08:30 7,8 C 7,7 C 7,8 C 85 % 1027,5 hPa 0,0 l/m 1,6 km/h (1 Bft) N-NO 31 0 min 0,000 mm 72 W/m 5,4 C 7,8 C 6,4 km/h (2 Bft) 100 %
16.04.2022 08:40 7,9 C 7,8 C 7,9 C 84 % 1027,5 hPa 0,0 l/m 3,1 km/h (1 Bft) NO 40 0 min 0,000 mm 63 W/m 5,4 C 7,9 C 11,3 km/h (2 Bft) 99 %
16.04.2022 08:50 7,9 C 7,8 C 7,9 C 83 % 1027,7 hPa 0,0 l/m 3,5 km/h (1 Bft) NO 49 0 min 0,000 mm 95 W/m 5,2 C 7,9 C 8,0 km/h (2 Bft) 100 %
16.04.2022 09:00 8,1 C 7,9 C 8,1 C 83 % 1027,8 hPa 0,0 l/m 2,0 km/h (1 Bft) NO 50 0 min 0,026 mm 74 W/m 5,4 C 8,1 C 6,4 km/h (2 Bft) 100 %
16.04.2022 09:10 8,0 C 8,0 C 8,1 C 82 % 1027,8 hPa 0,0 l/m 2,8 km/h (1 Bft) NO 46 0 min 0,000 mm 44 W/m 5,1 C 8,0 C 9,7 km/h (2 Bft) 100 %
16.04.2022 09:20 7,9 C 7,9 C 8,0 C 83 % 1027,8 hPa 0,0 l/m 1,3 km/h (1 Bft) NO 43 0 min 0,000 mm 125 W/m 5,2 C 7,9 C 9,7 km/h (2 Bft) 100 %
16.04.2022 09:30 8,1 C 7,9 C 8,1 C 83 % 1027,9 hPa 0,0 l/m 2,4 km/h (1 Bft) NO 41 0 min 0,000 mm 144 W/m 5,4 C 8,1 C 8,0 km/h (2 Bft) 91 %
16.04.2022 09:40 8,2 C 8,1 C 8,2 C 81 % 1027,9 hPa 0,0 l/m 4,7 km/h (1 Bft) NO 44 10 min 0,000 mm 192 W/m 5,1 C 8,2 C 17,7 km/h (3 Bft) 100 %
16.04.2022 09:50 8,6 C 8,2 C 8,6 C 82 % 1028,1 hPa 0,0 l/m 0,8 km/h (0 Bft) NO 40 10 min 0,000 mm 262 W/m 5,7 C 8,6 C 6,4 km/h (2 Bft) 100 %
16.04.2022 10:00 8,8 C 8,6 C 8,8 C 79 % 1028,1 hPa 0,0 l/m 2,9 km/h (1 Bft) NO 46 10 min 0,076 mm 285 W/m 5,4 C 8,8 C 9,7 km/h (2 Bft) 100 %
16.04.2022 10:10 9,4 C 8,8 C 9,4 C 78 % 1028,1 hPa 0,0 l/m 2,4 km/h (1 Bft) NO 49 10 min 0,000 mm 367 W/m 5,8 C 9,4 C 8,0 km/h (2 Bft) 100 %
16.04.2022 10:20 9,9 C 9,4 C 9,9 C 74 % 1028,2 hPa 0,0 l/m 2,7 km/h (1 Bft) NO 35 10 min 0,000 mm 675 W/m 5,5 C 9,9 C 11,3 km/h (2 Bft) 100 %
16.04.2022 10:30 10,2 C 9,9 C 10,2 C 72 % 1028,2 hPa 0,0 l/m 5,1 km/h (1 Bft) N-NO 14 10 min 0,000 mm 657 W/m 5,4 C 10,2 C 24,1 km/h (4 Bft) 100 %
16.04.2022 10:40 10,4 C 10,2 C 10,4 C 72 % 1028,2 hPa 0,0 l/m 3,8 km/h (1 Bft) N-NO 23 10 min 0,000 mm 664 W/m 5,6 C 10,4 C 14,5 km/h (3 Bft) 99 %
16.04.2022 10:50 10,8 C 10,4 C 10,8 C 70 % 1028,3 hPa 0,0 l/m 4,0 km/h (1 Bft) NO 46 10 min 0,000 mm 652 W/m 5,6 C 10,8 C 11,3 km/h (2 Bft) 100 %
16.04.2022 11:00 10,7 C 10,7 C 10,9 C 70 % 1028,3 hPa 0,0 l/m 4,6 km/h (1 Bft) NO 34 10 min 0,279 mm 763 W/m 5,5 C 10,7 C 11,3 km/h (2 Bft) 100 %
16.04.2022 11:10 11,1 C 10,7 C 11,1 C 69 % 1028,4 hPa 0,0 l/m 3,2 km/h (1 Bft) O-NO 62 10 min 0,000 mm 793 W/m 5,6 C 11,1 C 9,7 km/h (2 Bft) 100 %
16.04.2022 11:20 10,5 C 10,5 C 11,1 C 68 % 1028,4 hPa 0,0 l/m 4,0 km/h (1 Bft) NO 42 10 min 0,000 mm 320 W/m 4,8 C 10,5 C 9,7 km/h (2 Bft) 100 %
16.04.2022 11:30 10,8 C 10,4 C 10,8 C 68 % 1028,5 hPa 0,0 l/m 4,8 km/h (1 Bft) NO 38 10 min 0,000 mm 336 W/m 5,1 C 10,8 C 9,7 km/h (2 Bft) 100 %
16.04.2022 11:40 11,0 C 10,8 C 11,1 C 66 % 1028,5 hPa 0,0 l/m 3,8 km/h (1 Bft) NO 40 10 min 0,000 mm 346 W/m 4,9 C 11,0 C 9,7 km/h (2 Bft) 99 %
16.04.2022 11:50 10,7 C 10,7 C 11,0 C 66 % 1028,6 hPa 0,0 l/m 4,1 km/h (1 Bft) NO 37 10 min 0,000 mm 301 W/m 4,6 C 10,7 C 11,3 km/h (2 Bft) 91 %
16.04.2022 12:00 10,7 C 10,6 C 10,7 C 66 % 1028,6 hPa 0,0 l/m 1,4 km/h (1 Bft) N-NO 22 10 min 0,204 mm 348 W/m 4,6 C 10,7 C 11,3 km/h (2 Bft) 99 %
16.04.2022 12:10 11,2 C 10,7 C 11,2 C 64 % 1028,6 hPa 0,0 l/m 3,5 km/h (1 Bft) N-NO 33 10 min 0,000 mm 714 W/m 4,6 C 11,2 C 11,3 km/h (2 Bft) 100 %
16.04.2022 12:20 11,7 C 11,2 C 11,7 C 62 % 1028,7 hPa 0,0 l/m 4,9 km/h (1 Bft) N-NO 19 10 min 0,000 mm 385 W/m 4,7 C 11,7 C 16,1 km/h (3 Bft) 100 %
16.04.2022 12:30 11,7 C 11,6 C 11,7 C 62 % 1028,7 hPa 0,0 l/m 3,4 km/h (1 Bft) NO 42 10 min 0,000 mm 330 W/m 4,7 C 11,7 C 9,7 km/h (2 Bft) 100 %
16.04.2022 12:40 11,2 C 11,2 C 11,7 C 63 % 1028,8 hPa 0,0 l/m 2,5 km/h (1 Bft) NO 46 10 min 0,000 mm 244 W/m 4,4 C 11,2 C 6,4 km/h (2 Bft) 100 %
16.04.2022 12:50 11,2 C 11,1 C 11,2 C 65 % 1028,6 hPa 0,0 l/m 2,8 km/h (1 Bft) NO 34 10 min 0,000 mm 325 W/m 4,9 C 11,2 C 11,3 km/h (2 Bft) 100 %
16.04.2022 13:00 12,0 C 11,2 C 12,0 C 61 % 1028,6 hPa 0,0 l/m 3,2 km/h (1 Bft) N-NO 19 10 min 0,279 mm 810 W/m 4,7 C 12,0 C 14,5 km/h (3 Bft) 100 %
16.04.2022 13:10 12,4 C 12,0 C 12,4 C 57 % 1028,8 hPa 0,0 l/m 2,9 km/h (1 Bft) N-NO 18 10 min 0,000 mm 174 W/m 4,1 C 12,4 C 11,3 km/h (2 Bft) 100 %
16.04.2022 13:20 12,6 C 12,3 C 12,6 C 61 % 1028,6 hPa 0,0 l/m 1,0 km/h (0 Bft) NO 50 10 min 0,000 mm 879 W/m 5,3 C 12,6 C 8,0 km/h (2 Bft) 100 %
16.04.2022 13:30 12,8 C 12,6 C 13,0 C 58 % 1028,7 hPa 0,0 l/m 3,4 km/h (1 Bft) NO 40 10 min 0,000 mm 279 W/m 4,7 C 12,8 C 9,7 km/h (2 Bft) 100 %
16.04.2022 13:40 12,6 C 12,6 C 12,8 C 63 % 1028,5 hPa 0,0 l/m 1,0 km/h (0 Bft) N 355 10 min 0,000 mm 861 W/m 5,7 C 12,6 C 9,7 km/h (2 Bft) 100 %
16.04.2022 13:50 12,9 C 12,6 C 12,9 C 54 % 1028,6 hPa 0,0 l/m 4,4 km/h (1 Bft) O-NO 69 10 min 0,000 mm 814 W/m 3,8 C 12,9 C 11,3 km/h (2 Bft) 100 %
16.04.2022 14:00 13,0 C 12,9 C 13,1 C 55 % 1028,7 hPa 0,0 l/m 3,3 km/h (1 Bft) O 95 10 min 0,381 mm 814 W/m 4,2 C 13,0 C 19,3 km/h (3 Bft) 100 %
16.04.2022 14:10 13,2 C 13,0 C 13,2 C 52 % 1028,7 hPa 0,0 l/m 2,6 km/h (1 Bft) NO 48 10 min 0,000 mm 805 W/m 3,6 C 13,2 C 14,5 km/h (3 Bft) 99 %
16.04.2022 14:20 13,3 C 13,1 C 13,3 C 51 % 1028,7 hPa 0,0 l/m 2,5 km/h (1 Bft) O 81 10 min 0,000 mm 789 W/m 3,4 C 13,3 C 16,1 km/h (3 Bft) 100 %
16.04.2022 14:30 13,7 C 13,3 C 13,7 C 49 % 1028,8 hPa 0,0 l/m 0,9 km/h (0 Bft) NO 42 10 min 0,000 mm 789 W/m 3,2 C 13,7 C 11,3 km/h (2 Bft) 100 %
16.04.2022 14:40 13,7 C 13,7 C 13,8 C 48 % 1028,6 hPa 0,0 l/m 0,7 km/h (0 Bft) NO 47 10 min 0,000 mm 768 W/m 2,9 C 13,7 C 9,7 km/h (2 Bft) 100 %
16.04.2022 14:50 13,7 C 13,7 C 13,8 C 48 % 1028,7 hPa 0,0 l/m 2,6 km/h (1 Bft) N-NO 20 10 min 0,000 mm 765 W/m 2,9 C 13,7 C 19,3 km/h (3 Bft) 100 %
16.04.2022 15:00 13,9 C 13,7 C 13,9 C 46 % 1028,5 hPa 0,0 l/m 1,3 km/h (1 Bft) N-NO 28 10 min 0,406 mm 749 W/m 2,5 C 13,9 C 14,5 km/h (3 Bft) 100 %
16.04.2022 15:10 13,7 C 13,6 C 13,9 C 45 % 1028,6 hPa 0,0 l/m 1,7 km/h (1 Bft) N-NO 30 10 min 0,000 mm 737 W/m 2,0 C 13,7 C 11,3 km/h (2 Bft) 100 %
16.04.2022 15:20 13,9 C 13,7 C 13,9 C 47 % 1028,5 hPa 0,0 l/m 0,3 km/h (0 Bft) N-NO 27 10 min 0,000 mm 719 W/m 2,8 C 13,9 C 9,7 km/h (2 Bft) 100 %
16.04.2022 15:30 14,1 C 13,9 C 14,1 C 46 % 1028,4 hPa 0,0 l/m 0,7 km/h (0 Bft) NO 43 10 min 0,000 mm 700 W/m 2,7 C 14,1 C 11,3 km/h (2 Bft) 100 %
16.04.2022 15:40 14,2 C 14,1 C 14,2 C 43 % 1028,5 hPa 0,0 l/m 0,9 km/h (0 Bft) NO 42 10 min 0,000 mm 682 W/m 1,8 C 14,2 C 11,3 km/h (2 Bft) 100 %
16.04.2022 15:50 14,2 C 14,1 C 14,2 C 42 % 1028,3 hPa 0,0 l/m 1,0 km/h (0 Bft) NO 47 10 min 0,000 mm 668 W/m 1,5 C 14,2 C 12,9 km/h (3 Bft) 100 %
16.04.2022 16:00 14,2 C 14,1 C 14,2 C 40 % 1028,1 hPa 0,0 l/m 0,5 km/h (0 Bft) NO 42 10 min 0,356 mm 643 W/m 0,8 C 14,2 C 9,7 km/h (2 Bft) 100 %
16.04.2022 16:10 14,3 C 14,2 C 14,3 C 40 % 1028,1 hPa 0,0 l/m 0,3 km/h (0 Bft) NO 36 10 min 0,000 mm 633 W/m 0,9 C 14,3 C 6,4 km/h (2 Bft) 100 %
16.04.2022 16:20 14,3 C 14,3 C 14,4 C 37 % 1028,1 hPa 0,0 l/m 0,6 km/h (0 Bft) NO 39 10 min 0,000 mm 606 W/m -0,2 C 14,3 C 9,7 km/h (2 Bft) 100 %
16.04.2022 16:30 14,4 C 14,3 C 14,4 C 37 % 1028,0 hPa 0,0 l/m 0,6 km/h (0 Bft) N-NO 21 10 min 0,000 mm 585 W/m -0,1 C 14,4 C 9,7 km/h (2 Bft) 98 %
16.04.2022 16:40 14,4 C 14,4 C 14,5 C 38 % 1028,1 hPa 0,0 l/m 1,9 km/h (1 Bft) NO 44 10 min 0,000 mm 564 W/m 0,3 C 14,4 C 14,5 km/h (3 Bft) 98 %
16.04.2022 16:50 14,5 C 14,4 C 14,5 C 34 % 1028,1 hPa 0,0 l/m 2,3 km/h (1 Bft) O-NO 69 10 min 0,000 mm 540 W/m -1,2 C 14,5 C 14,5 km/h (3 Bft) 97 %
16.04.2022 17:00 14,6 C 14,5 C 14,6 C 38 % 1028,0 hPa 0,0 l/m 0,8 km/h (0 Bft) O-NO 72 10 min 0,305 mm 512 W/m 0,4 C 14,6 C 19,3 km/h (3 Bft) 98 %
16.04.2022 17:10 14,6 C 14,6 C 14,6 C 36 % 1028,0 hPa 0,0 l/m 0,7 km/h (0 Bft) N-NO 27 10 min 0,000 mm 487 W/m -0,3 C 14,6 C 11,3 km/h (2 Bft) 97 %
16.04.2022 17:20 14,5 C 14,5 C 14,6 C 37 % 1028,0 hPa 0,0 l/m 0,4 km/h (0 Bft) NO 36 10 min 0,000 mm 461 W/m -0,0 C 14,5 C 8,0 km/h (2 Bft) 98 %
16.04.2022 17:30 14,2 C 14,2 C 14,5 C 38 % 1027,9 hPa 0,0 l/m 1,0 km/h (0 Bft) NO 44 10 min 0,000 mm 432 W/m 0,1 C 14,2 C 9,7 km/h (2 Bft) 97 %
16.04.2022 17:40 14,2 C 14,1 C 14,2 C 38 % 1027,9 hPa 0,0 l/m 0,7 km/h (0 Bft) NO 40 10 min 0,000 mm 404 W/m 0,1 C 14,2 C 14,5 km/h (3 Bft) 97 %
16.04.2022 17:50 14,1 C 14,1 C 14,2 C 36 % 1028,1 hPa 0,0 l/m 0,9 km/h (0 Bft) O 82 10 min 0,000 mm 376 W/m -0,7 C 14,1 C 14,5 km/h (3 Bft) 97 %
16.04.2022 18:00 14,1 C 14,1 C 14,1 C 36 % 1028,2 hPa 0,0 l/m 0,2 km/h (0 Bft) NO 46 10 min 0,228 mm 346 W/m -0,7 C 14,1 C 8,0 km/h (2 Bft) 97 %
16.04.2022 18:10 13,7 C 13,7 C 14,1 C 35 % 1028,1 hPa 0,0 l/m 0,3 km/h (0 Bft) O 92 10 min 0,000 mm 308 W/m -1,5 C 13,7 C 8,0 km/h (2 Bft) 99 %
16.04.2022 18:20 13,6 C 13,5 C 13,7 C 37 % 1028,1 hPa 0,0 l/m 0,1 km/h (0 Bft) NO 42 10 min 0,000 mm 283 W/m -0,8 C 13,6 C 6,4 km/h (2 Bft) 100 %
16.04.2022 18:30 13,3 C 13,3 C 13,6 C 37 % 1028,1 hPa 0,0 l/m 0,8 km/h (0 Bft) NO 37 10 min 0,000 mm 257 W/m -1,1 C 13,3 C 11,3 km/h (2 Bft) 100 %
16.04.2022 18:40 12,9 C 12,9 C 13,3 C 38 % 1028,2 hPa 0,0 l/m 0,6 km/h (0 Bft) NO 53 0 min 0,000 mm 39 W/m -1,1 C 12,9 C 8,0 km/h (2 Bft) 100 %
16.04.2022 18:50 12,6 C 12,6 C 12,9 C 39 % 1028,1 hPa 0,0 l/m 1,5 km/h (1 Bft) NO 34 0 min 0,000 mm 37 W/m -1,0 C 12,6 C 11,3 km/h (2 Bft) 100 %
16.04.2022 19:00 12,3 C 12,3 C 12,6 C 40 % 1028,2 hPa 0,0 l/m 0,4 km/h (0 Bft) NO 40 0 min 0,102 mm 33 W/m -0,9 C 12,3 C 8,0 km/h (2 Bft) 100 %
16.04.2022 19:10 12,1 C 12,1 C 12,3 C 41 % 1028,2 hPa 0,0 l/m 0,2 km/h (0 Bft) NO 40 0 min 0,000 mm 30 W/m -0,7 C 12,1 C 8,0 km/h (2 Bft) 100 %
16.04.2022 19:20 11,8 C 11,8 C 12,1 C 43 % 1028,2 hPa 0,0 l/m 0,8 km/h (0 Bft) NO 44 0 min 0,000 mm 28 W/m -0,4 C 11,8 C 9,7 km/h (2 Bft) 100 %
16.04.2022 19:30 11,7 C 11,7 C 11,8 C 39 % 1028,4 hPa 0,0 l/m 1,6 km/h (1 Bft) O-NO 66 0 min 0,000 mm 25 W/m -1,8 C 11,7 C 16,1 km/h (3 Bft) 100 %
16.04.2022 19:40 11,5 C 11,5 C 11,7 C 39 % 1028,5 hPa 0,0 l/m 0,8 km/h (0 Bft) NO 54 0 min 0,000 mm 21 W/m -2,0 C 11,5 C 14,5 km/h (3 Bft) 100 %
16.04.2022 19:50 11,3 C 11,2 C 11,5 C 40 % 1028,5 hPa 0,0 l/m 0,0 km/h (0 Bft) O 79 0 min 0,000 mm 16 W/m -1,8 C 11,3 C 1,6 km/h (1 Bft) 91 %
16.04.2022 20:00 11,0 C 11,0 C 11,3 C 43 % 1028,5 hPa 0,0 l/m 0,0 km/h (0 Bft) O 90 0 min 0,025 mm 12 W/m -1,1 C 11,0 C 0,0 km/h (0 Bft) 100 %
16.04.2022 20:10 10,7 C 10,7 C 11,0 C 45 % 1028,5 hPa 0,0 l/m 0,2 km/h (0 Bft) O-NO 78 0 min 0,000 mm 7 W/m -0,7 C 10,7 C 6,4 km/h (2 Bft) 100 %
16.04.2022 20:20 10,2 C 10,2 C 10,7 C 47 % 1028,7 hPa 0,0 l/m 0,2 km/h (0 Bft) N 9 0 min 0,000 mm 0 W/m -0,6 C 10,2 C 6,4 km/h (2 Bft) 100 %
16.04.2022 20:30 9,7 C 9,7 C 10,2 C 47 % 1028,7 hPa 0,0 l/m 0,2 km/h (0 Bft) O 80 0 min 0,000 mm 0 W/m -1,1 C 9,7 C 6,4 km/h (2 Bft) 100 %
16.04.2022 20:40 9,4 C 9,4 C 9,7 C 47 % 1028,8 hPa 0,0 l/m 0,0 km/h (0 Bft) O-NO 68 0 min 0,000 mm 0 W/m -1,3 C 9,4 C 3,2 km/h (1 Bft) 100 %
16.04.2022 20:50 9,1 C 9,1 C 9,4 C 48 % 1028,9 hPa 0,0 l/m 0,0 km/h (0 Bft) O-NO 60 0 min 0,000 mm 0 W/m -1,3 C 9,1 C 0,0 km/h (0 Bft) 100 %
16.04.2022 21:00 8,7 C 8,7 C 9,1 C 49 % 1029,0 hPa 0,0 l/m 0,0 km/h (0 Bft) O-NO 57 0 min 0,000 mm 0 W/m -1,4 C 8,7 C 1,6 km/h (1 Bft) 99 %
16.04.2022 21:10 8,4 C 8,4 C 8,7 C 51 % 1029,1 hPa 0,0 l/m 0,0 km/h (0 Bft) O-NO 59 0 min 0,000 mm 0 W/m -1,1 C 8,4 C 1,6 km/h (1 Bft) 100 %
16.04.2022 21:20 8,1 C 8,1 C 8,4 C 52 % 1029,3 hPa 0,0 l/m 0,0 km/h (0 Bft) O-NO 58 0 min 0,000 mm 0 W/m -1,2 C 8,1 C 0,0 km/h (0 Bft) 100 %
16.04.2022 21:30 7,8 C 7,8 C 8,1 C 53 % 1029,3 hPa 0,0 l/m 0,0 km/h (0 Bft) O-NO 58 0 min 0,000 mm 0 W/m -1,2 C 7,8 C 0,0 km/h (0 Bft) 100 %
16.04.2022 21:40 7,5 C 7,5 C 7,8 C 53 % 1029,5 hPa 0,0 l/m 0,0 km/h (0 Bft) O-NO 58 0 min 0,000 mm 0 W/m -1,4 C 7,5 C 0,0 km/h (0 Bft) 100 %
16.04.2022 21:50 7,3 C 7,3 C 7,5 C 54 % 1029,5 hPa 0,0 l/m 0,0 km/h (0 Bft) O-NO 58 0 min 0,000 mm 0 W/m -1,4 C 7,3 C 0,0 km/h (0 Bft) 99 %
16.04.2022 22:00 7,1 C 7,1 C 7,3 C 56 % 1029,5 hPa 0,0 l/m 0,0 km/h (0 Bft) O-NO 58 0 min 0,026 mm 0 W/m -1,1 C 7,1 C 0,0 km/h (0 Bft) 99 %
16.04.2022 22:10 7,0 C 7,0 C 7,1 C 56 % 1029,6 hPa 0,0 l/m 0,0 km/h (0 Bft) O-NO 58 0 min 0,000 mm 0 W/m -1,2 C 7,0 C 0,0 km/h (0 Bft) 100 %
16.04.2022 22:20 6,9 C 6,9 C 7,0 C 57 % 1029,6 hPa 0,0 l/m 0,0 km/h (0 Bft) O-NO 58 0 min 0,000 mm 0 W/m -1,0 C 6,9 C 0,0 km/h (0 Bft) 100 %
16.04.2022 22:30 6,7 C 6,7 C 6,9 C 58 % 1029,7 hPa 0,0 l/m 0,0 km/h (0 Bft) O-NO 58 0 min 0,000 mm 0 W/m -1,0 C 6,7 C 0,0 km/h (0 Bft) 100 %
16.04.2022 22:40 6,3 C 6,3 C 6,7 C 59 % 1029,8 hPa 0,0 l/m 0,0 km/h (0 Bft) O-NO 58 0 min 0,000 mm 0 W/m -1,1 C 6,3 C 0,0 km/h (0 Bft) 98 %
16.04.2022 22:50 6,1 C 6,1 C 6,3 C 61 % 1029,9 hPa 0,0 l/m 0,0 km/h (0 Bft) O-NO 58 0 min 0,000 mm 0 W/m -0,8 C 6,1 C 0,0 km/h (0 Bft) 98 %
16.04.2022 23:00 5,8 C 5,8 C 6,1 C 63 % 1029,9 hPa 0,0 l/m 0,0 km/h (0 Bft) O-NO 58 0 min 0,025 mm 0 W/m -0,7 C 5,8 C 0,0 km/h (0 Bft) 97 %
16.04.2022 23:10 5,6 C 5,6 C 5,8 C 64 % 1029,9 hPa 0,0 l/m 0,0 km/h (0 Bft) O-NO 58 0 min 0,000 mm 0 W/m -0,7 C 5,6 C 1,6 km/h (1 Bft) 91 %
16.04.2022 23:20 5,4 C 5,4 C 5,6 C 66 % 1029,8 hPa 0,0 l/m 0,0 km/h (0 Bft) O-NO 58 0 min 0,000 mm 0 W/m -0,4 C 5,4 C 0,0 km/h (0 Bft) 95 %
16.04.2022 23:30 5,3 C 5,3 C 5,4 C 65 % 1029,7 hPa 0,0 l/m 0,0 km/h (0 Bft) O-NO 58 0 min 0,000 mm 0 W/m -0,7 C 5,3 C 0,0 km/h (0 Bft) 97 %
16.04.2022 23:40 5,2 C 5,2 C 5,3 C 65 % 1029,8 hPa 0,0 l/m 0,0 km/h (0 Bft) O-NO 58 0 min 0,000 mm 0 W/m -0,8 C 5,2 C 0,0 km/h (0 Bft) 98 %
16.04.2022 23:50 5,2 C 5,1 C 5,2 C 65 % 1029,8 hPa 0,0 l/m 0,1 km/h (0 Bft) NO 54 0 min 0,000 mm 0 W/m -0,8 C 5,2 C 4,8 km/h (1 Bft) 97 %
_ Min-Zeit 03:40 03:40 03:50 16:50 00:00 - 00:00 - - - - - 19:40 03:40 00:00 05:10
Minimum _ 4,7 C 4,7 C 4,7 C 34 % 1025,4 hPa - 0,0 km/h (0 Bft) - - - - - -2,0 C 4,7 C 0,0 km/h (0 Bft) 89 %
_ Max-Zeit 17:00 17:10 17:00 06:00 22:50 00:00 10:30 - - 09:40 15:00 13:20 10:10 17:00 10:30 06:50
Maximum _ 14,6 C 14,6 C 14,6 C 90 % 1029,9 hPa 0,0 l/m 5,1 km/h
N-NO (1 Bft)
- - 10 min 0,406 mm 879 W/m 5,8 C 14,6 C 24,1 km/h
NO (4 Bft)
100 %
Durchschnitt _ 9,1 C 9,0 C 9,2 C 66 % 1027,7 hPa #0,0 l/m 1,0 km/h (0 Bft) NO - #9:00 h #2,743 mm 373 W/m 2,5 C 9,1 C 5,7 km/h (1 Bft) 99 %
PRIVATE WETTERSTATION BILLIGHEIM-ALLFELD - www.neckar-odenwald-wetter.de - Holger Sonntag